LIVE VIDEO: WUSA 9 at 6pm    Watch
 

Current Temps

Weather Temperatures Right Now
Weather Temperatures - Feels Like

Interactive Temperatures Map | Weather by Zip Code

National Weather Service Data
ASUS41 Bulletin

Most recent data in the last 24 hours

793 
ASUS41 KAKQ 282210  WSI PPS:282236
RWRAKQ

REGIONAL WEATHER ROUNDUP
NATIONAL WEATHER SERVICE WAKEFIELD VA
500 PM EST SAT FEB 28 2015

Note: "fair" indicates few or no clouds below 12,000 feet with no
significant weather and/or obstructions to visibility. * = Denotes
station may not report precipitation (e.g., rain,snow,etc.),
thunder or fog.

VAZ042-051-052>054-056-282300-
NORTHERN VIRGINIA
  
CITY           SKY/WX    TMP DP  RH WIND       PRES   REMARKS
WASH NATIONAL  MOSUNNY   32   7  35 SE3       30.77S                  
DULLES         MOSUNNY   29   0  28 W3        30.75F                  
FORT BELVOIR   SUNNY     31   1  28 SW2       30.76F                  
QUANTICO       SUNNY     30   4  33 CALM      30.78F                  
FREDERICKSBRG* SUNNY     33   6  31 CALM      30.76R                  
STAFFORD*      SUNNY     31   2  28 E8        30.79S                  
WARRENTON      SUNNY     31  10  41 CALM      30.74S                  
CULPEPER*      SUNNY     30   5  34 CALM      30.75S                  
MANASSAS*      SUNNY     30   5  34 CALM      30.76F                  
LEESBURG*      MOSUNNY   30   5  34 CALM      30.75S                  
WINCHESTER     SUNNY     30   1  29 SE8       30.70S                  
FRONT ROYAL*   FAIR      30   7  37 E3        30.69S                  
LURAY*         FAIR      34  14  44 CALM      30.67R                  
$$

VAZ048-049-060>072-079>083-282300-
CENTRAL AND SOUTH CENTRAL VIRGINIA
  
CITY           SKY/WX    TMP DP  RH WIND       PRES   REMARKS
RICHMOND       MOSUNNY   35   7  31 CALM      30.74S                  
CHESTERFIELD*  FAIR      34   5  29 CALM      30.74F                  
PETERSBURG*    MOSUNNY   34   7  32 N3        30.74S                  
HANOVER        SUNNY     34   6  31 VRB3      30.75F                  
TAPPAHANNOCK*  SUNNY     32   2  27 NE3       30.76F                  
QUINTON*       FAIR      33   8  35 NE3       30.75S                  
CHARLOTTSVILLE SUNNY     30   7  37 S5        30.71R                  
GORDONSVILLE*  FAIR      30   6  35 CALM      30.72S                  
ORANGE*        SUNNY     32   9  37 CALM      30.75R                  
LOUISA*        SUNNY     34   9  35 CALM      30.72R                  
BUMPASS*       FAIR      32   7  35 CALM      30.73S                  
FARMVILLE*     SUNNY     42  10  27 NE3       30.70F                  
CREWE*         MOCLDY    34   7  32 N3        30.71S                  
FORT PICKETT*  FAIR      34  11  37 E5        30.71S                  
CHASE CITY*    FAIR      38  13  36 E3        30.70S                  
CLARKSVILLE*   FAIR      34  12  40 SE3       30.70S                  
SOUTH HILL*    SUNNY     35  10  35 NE3       30.76S                  
LAWRENCEVILLE* FAIR      36  10  35 NE3       30.71S                  
EMPORIA*       SUNNY     36  12  38 E3        30.74S                  
$$

VAZ088>098-282300-
SOUTHEAST VIRGINIA
  
CITY           SKY/WX    TMP DP  RH WIND       PRES   REMARKS
NORFOLK        SUNNY     28  17  63 NE12      30.76S WCI  18          
VIRGINIA BEACH PTSUNNY   31  17  56 NE9       30.75F                  
NORFOLK NAVAL  PTSUNNY   31  18  58 NE10      30.78S WCI  22          
WEST POINT*    SUNNY     34   8  34 NE7       30.78S                  
SALUDA*        MOCLDY    27  12  52 E6        30.77S                  
NEWPORT NEWS   SUNNY     31  10  41 E9        30.76F                  
LANGLEY AFB    SUNNY     28  15  58 NE9       30.77S                  
FORT EUSTIS    SUNNY     31  17  54 E8        30.74S                  
WILLIAMSBURG*  SUNNY     36  19  51 E5        30.76S                  
HR EXEC AP*    FAIR      30  12  47 NE8       30.78S                  
FRANKLIN*      SUNNY     32  17  54 E8        30.75S                  
WAKEFIELD      SUNNY     35  11  36 VRB3      30.74S                  
$$

VAZ020-022-025-037-045-282300-
WEST CENTRAL AND SOUTHWEST VIRGINIA
  
CITY           SKY/WX    TMP DP  RH WIND       PRES   REMARKS
STAUNTON*      SUNNY     31  10  42 S6        30.67S                  
WAYNESBORO*    FAIR      29   9  43 SE5       30.64R                  
HOT SPRINGS VA SUNNY     27  12  54 SW5       30.46F                  
LYNCHBURG      MOSUNNY   31  11  43 CALM      30.69S                  
DANVILLE       SUNNY     36  11  35 VRB3      30.70S                  
SOUTH BOSTON*  FAIR      37  10  33 S3        30.71R                  
MARTINSVILLE   SUNNY     37  15  40 NE6       30.68S                  
ROANOKE        PTSUNNY   32  12  43 E7        30.67S                  
BLACKSBURG     PTSUNNY   33  14  45 NE5       30.60R                  
DUBLIN*        CLOUDY    35  20  54 NE5       30.58S                  
MARION*        SUNNY     36  21  55 NE8       30.54F                  
HILLSVILLE*    MOSUNNY   32  19  57 CALM      30.53S                  
RICHLANDS*     CLOUDY    40  19  42 SE3       30.48F                  
WISE*          PTSUNNY   41  19  42 SE5       30.48F                  
ABINGDON*      MOSUNNY   44  22  41 E7        30.50F                  
$$

MDZ021>025-VAZ099-100-282300-
SOUTHERN MARYLAND AND THE DELMARVA PENINSULA
  
CITY           SKY/WX    TMP DP  RH WIND       PRES   REMARKS
PATUXENT RIVER MOSUNNY   27   7  42 NE5       30.77F                  
BAY BRIDGE APT   N/A     28   1  31 CALM      30.79R                  
LEONARDTOWN    SUNNY     28   9  43 E6        30.78S                  
DOVER          CLEAR     27   9  47 E5        30.77S                  
GEORGETOWN     CLEAR     28   9  44 E5        30.77S                  
EASTON         PTCLDY    30   7  37 CALM      30.81S                  
CAMBRIDGE      CLEAR     32  10  40 N3        30.77S                  
SALISBURY      CLEAR     32   7  35 NW3       30.76F                  
OCEAN CITY     CLEAR     26  10  50 E7        30.78S                  
WALLOPS ISLAND MOCLDY    26  13  57 E8        30.78S                  
ACCOMACK*      PTCLDY    30  12  47 N6        30.77R                  
$$

NCZ012>017-030>032-282300-
NORTH CENTRAL AND EASTERN NORTH CAROLINA
  
CITY           SKY/WX    TMP DP  RH WIND       PRES   REMARKS
ROANOKE RAPIDS FAIR      37  14  38 E5        30.71F                  
RALEIGH        PTSUNNY   37  13  37 E5        30.68F                  
ELIZABETH CITY SUNNY     32  19  58 N12       30.75R WCI  23          
AHOSKIE*       SUNNY     36  14  40 NE5       30.73S                  
EDENTON*       SUNNY     36  20  52 NE8       30.73S                  
CURRITUCK*     SUNNY     32  19  57 N12       30.76S WCI  23          
KILL DEVIL HLS SUNNY     34  23  64 N8G18     30.72R                  
MANTEO         SUNNY     34  21  60 N14G20    30.73S WCI  24          
CAPE HATTERAS  PTSUNNY   35  27  72 NE12G24   30.68F                  
TARBORO*       FAIR      39  16  38 N7        30.72S                  
GOLDSBORO      SUNNY     40  23  50 N9        30.67                   
WASHINGTON     SUNNY     38  19  46 NE8       30.71S                  
GREENVILLE     SUNNY     39  19  45 NE9       30.69S                  
NEW BERN       MOSUNNY   39  20  46 NE9       30.70S                  
WILMINGTON     CLOUDY    45  23  42 NE15      30.63F                  
$$

VAZ048-282300-
ELSEWHERE
  
CITY           SKY/WX    TMP DP  RH WIND       PRES   REMARKS
HARRISBURG PA  PTCLDY    28  -3  26 CALM      30.73F                  
BALTIMORE      MOSUNNY   27   5  39 SE6       30.75S                  
ANNAPOLIS      CLEAR     26   5  40 SE6       30.78S                  
ANDREWS AFB    SUNNY     30   1  28 CALM      30.74F                  
PHILADELPHIA   FAIR      30  -1  26 CALM      30.76F                  
HENDERSON NC   SUNNY     34  11  37 CALM      30.69S                  
GREENSBORO     CLOUDY    36  16  44 E5        30.64S                  
ROCKY MOUNT    SUNNY     39  16  39 N8        30.71S                  
$$

VAZ100-282300-
MARINE
  
STATION/POSITION TIME  TEMP    WIND        PRES    WAVE   SWELL
                       AIR SEA DIR/SP/G            HT/PER HT/PER
                 (UTC) (F)     (DEG/KT/KT) (MB)    (FT/S) (FT/S)
BRANDYWINE LGT   2200   25 30  350/  5/  6 1042.3R
CAPE MAY NJ      2200   26 33  290/  4/  6 1041.7R
LEWES DE         2200   26 30   20/  2/  3 1042.3R
15NM E FENWICK I 2200   25 34              1042.2S   3/10
OCEAN-CITY-INLET 2200   27 32   70/  6/  8 1041.9R
WACHAPREAGUE VA  2200   28 33   60/  8/ 10 1042.0R
THOMAS POINT MD  2200   26 32  120/  4/  5 1043.3S
COVE POINT MD    2200   24      20/  3/  5 1042.1S
SOLOMONS ISLAND  2200      34                N/A
BISHOPS HEAD MD  2200   27 33  280/  5/  7 1041.5F
CAMBRIDGE MD     2200   26 32  330/  5/  6 1042.2S
LEWISETTA VA     2200   26 34     CALM     1042.0F
RAPPAHANNOCK LGT 2200          360/ 10/ 11 1042.5R
STINGRAY PT      2200   27      40/  8/ 10   N/A
YORK RVR RNG VA  2200   27      60/  9/ 10 1041.5S
YORKTOWN VA      2200   28 33   80/  9/ 10 1041.8S
DOMINION TERM VA 2200   28      60/  9/ 12 1041.8R
KIPTOPEKE VA     2200      38   70/  5/  7   N/A
CHES BAY BRIDGE  2200   28 33   50/  6/  9 1041.4R
CAPE HENRY VA    2200   28      40/  8/ 11 1040.3R
CHESAPEAKE LGHT  2100   28      30/ 14/ 15 1042.0F
WILLOUBY STN VA  2200   27      30/ 10/ 11 1042.2S
S CRANEY ISL VA  2200           50/  9/ 11 1041.4F
CAPE HENRY BUOY  2200      35                N/A     3/ 5   2/11
1ST LANDING BUOY 2200   29      60/  8/ 10 1041.2R
OFFSHORE WE BUOY 2200      37                N/A     5/11   3/11
64NM E OF VA BCH 2200   39 60   10/ 17/ 21 1039.4F   5/10   3/10
DUCK PIER NC     2200   32 35   20/ 19/ 20 1039.7R
44100 DUCK FRF   2200      37                N/A     5/11   2/11
44056 DUCK FRF   2200      34                N/A     5/ 6   2/11
OREGON INLET NC  2200   35 39  360/ 13/ 19 1040.0R
HATTERAS NC      2200   35 40   20/ 21/ 27 1039.2F
CAPE LOOKOUT NC  2200   38      20/ 19/ 23 1038.0F
$$



ASUS41 Bulletin

Most recent data in the last 24 hours

096 
ASUS41 KLWX 282210  WSI PPS:282237
RWRLWX

REGIONAL WEATHER ROUNDUP
NATIONAL WEATHER SERVICE BALTIMORE MD/WASHINGTON DC
500 PM EST SAT FEB 28 2015

Note: "FAIR" indicates few or no clouds below 12,000 feet
with no significant weather and/or obstructions to visibility.
 TC=TEMPERATURE CELSIUS

 * =Non NWS site. Station does not report precipitation (e.g. rain,
    snow, etc.), thunder, or fog.

DCZ001-MDZ009-015-VAZ040>042-051-053>054-282300-
WASHINGTON METRO
  
CITY           SKY/WX    TMP DP  RH WIND       PRES   REMARKS
WASHINGTON NAT MOSUNNY   32   7  35 SE3       30.77S                  
DULLES         MOSUNNY   29   0  28 W3        30.75F                  
ANDREWS AFB    SUNNY     30   1  28 CALM      30.74F                  
FT BELVOIR     SUNNY     31   1  28 SW2       30.76F                  
QUANTICO       SUNNY     30   4  33 CALM      30.78F                  
COLLEGE PARK*  SUNNY     32   1  27 W3        30.76                   
LEESBURG*      MOSUNNY   30   5  34 CALM      30.75S                  
MANASSAS*      SUNNY     30   5  34 CALM      30.76F                  
GAITHERSBURG*  PTSUNNY   27  -2  28 NW6       30.76F                  

$$

MDZ006>007-011-014-282300-
BALTIMORE METRO
  
CITY           SKY/WX    TMP DP  RH WIND       PRES   REMARKS
BWI AIRPORT    MOSUNNY   27   5  39 SE6       30.75S                  
MD SCIENCE CTR   N/A     26   9  48 MISG      30.74R                  
MARTIN STATE   PTCLDY    27   9  46 SE6       30.79S                  
ANNAPOLIS      CLEAR     26   5  40 SE6       30.78S                  
FORT MEADE*    SUNNY     30   0  27 CALM      30.78S                  

$$

MDZ012-015-019>023-282300-
MARYLAND EASTERN SHORE
  
CITY           SKY/WX    TMP DP  RH WIND       PRES   REMARKS
OCEAN CITY     CLEAR     26  10  50 E7        30.78S                  
SALISBURY      CLEAR     32   7  35 NW3       30.76F                  
BAY BRIDGE AP*   N/A     28   1  31 CALM      30.79R                  
CAMBRIDGE*     CLEAR     32  10  40 N3        30.77S                  
EASTON*        PTCLDY    30   7  37 CALM      30.81S                  

$$

MDZ017>025-282300-
SOUTHERN MARYLAND
  
CITY           SKY/WX    TMP DP  RH WIND       PRES   REMARKS
PATUXENT RIVER MOSUNNY   27   7  42 NE5       30.77F                  
ST INIGOES     SUNNY     28   5  37 NE5       30.77F                  
LEONARDTOWN*   SUNNY     28   9  43 E6        30.78S                  

$$

MDZ003>005-282300-
NORTH CENTRAL MARYLAND
  
CITY           SKY/WX    TMP DP  RH WIND       PRES   REMARKS
FREDERICK*     SUNNY     30  -6  21 SW5       30.77F                  
HAGERSTOWN APT SUNNY     29  -2  26 CALM      30.70F                  
WESTMINSTER*   MOSUNNY   27  -4  26 CALM      30.71S                  

$$

MDZ501>502-282300-
WESTERN MARYLAND
  
CITY           SKY/WX    TMP DP  RH WIND       PRES   REMARKS
OAKLAND*       CLOUDY    25  -4  28 SE8       30.50S WCI  16          
CUMBERLAND*    SUNNY     34   3  27 CALM      30.70S                  

$$

VAZ025>031-282300-
SHENANDOAH VALLEY
  
CITY           SKY/WX    TMP DP  RH WIND       PRES   REMARKS
WINCHESTER*    SUNNY     30   1  29 SE8       30.70S WCI  23          
FRONT ROYAL*   FAIR      30   7  37 E3        30.69S                  
LURAY*         FAIR      34  14  44 CALM      30.67R                  
NEW MARKET*    FAIR      29  10  44 CALM      30.67R                  
STAUNTON*      SUNNY     31  10  42 S6        30.67S                  
WAYNESBORO*    FAIR      29   9  43 SE5       30.64R                  

$$

WVZ021-048>050-054>055-282300-
EASTERN WEST VIRGINIA PANHANDLE
  
CITY           SKY/WX    TMP DP  RH WIND       PRES   REMARKS
MARTINSBURG    SUNNY     29  -2  26 CALM      30.71F                  
PETERSBURG*    NOT AVBL                                               

$$

VAZ036>039-050-282300-
CENTRAL FOOTHILLS
  
CITY           SKY/WX    TMP DP  RH WIND       PRES   REMARKS
CHARLOTTESVILL SUNNY     30   7  37 S5        30.71R                  
CULPEPER*      SUNNY     30   5  34 CALM      30.75S                  
ORANGE*        SUNNY     32   9  37 CALM      30.75R                  
GORDONSVILLE*  FAIR      30   6  35 CALM      30.72S                  
WARRENTON*     FAIR      31  10  41 CALM      30.74S                  

$$

VAZ055>057-282300-
NORTH AND CENTRAL PIEDMONT
  
CITY           SKY/WX    TMP DP  RH WIND       PRES   REMARKS
FREDERICKSBRG* SUNNY     33   6  31 CALM      30.76R                  
STAFFORD*      SUNNY     31   2  28 E8        30.79S WCI  24          

$$

NCZ024-NYZ072-PAZ021-071-VAZ022-071-282300-
OTHER REGIONAL OBSERVATIONS
  
CITY           SKY/WX    TMP DP  RH WIND       PRES   REMARKS
NEW YORK CITY  CLEAR     29  -1  27 W6        30.76S                  
PHILADELPHIA   FAIR      30  -1  26 CALM      30.76F                  
PITTSBURGH     PTSUNNY   25   1  35 E6        30.62F                  
ROANOKE        PTSUNNY   32  12  43 E7        30.67S                  
RICHMOND       MOSUNNY   35   7  31 CALM      30.74S                  
RALEIGH        PTSUNNY   37  13  37 E5        30.68F                  

$$

ANZ530>537-282300-
MARINE OBSERVATIONS
  
STATION/POSITION TIME  TEMP    WIND        PRES
                       AIR SEA DIR/SP/G
                 (UTC) (F)     (DEG/KT/KT) (MB)
THOMAS PT LIGHT  2200   26 32  120/  4/  5 1043.3S
BALT KEY BRIDGE  2100   25     110/ 10/ 12 1041.9F
COVE POINT       2100   23      20/  3/  4 1042.1F
LEWISETTA        2100   26 33     CALM     1042.2S
SOLOMONS ISLAND  2100      34                N/A

$$



Weather Maps

LOCAL DOPPLER RADAR

LOCAL FORECAST

METRO ZONE WEATHER

REGIONAL WEATHER

EASTERN WEATHER

NATIONAL WEATHER

SEVERE WEATHER

Weather Cams
Topper Shutt Weather Blog
Howard Bernstein Weather Blog
Erica Grow Weather Blog
Weather Photos
Get automated phone alerts when severe weather is in your area. Sign up for the WUSA9 First Alert Weather Call.